Wind_Speed
6 7 8 9 10 11 12 13 14 14 14 14 15 15 15 15 16 16 16 17 17 17 17 17 17 17 16 16 15 14 14 13 12 12 11 10 9 8 7 6 5 4 4
6 7 8 10 11 12 13 14 14 14 14 14 15 15 15 15 16 16 17 17 17 18 18 18 18 18 18 17 17 16 14 13 12 11 11 10 9 8 7 5 4 3 3
7 8 10 11 12 12 12 12 13 13 13 14 14 15 15 16 16 17 17 18 18 19 20 20 20 20 19 19 18 17 16 14 12 11 10 9 8 8 6 5 4 3 2
8 9 10 11 11 11 11 11 12 12 13 13 14 15 16 16 17 18 17 18 19 20 21 21 22 21 20 20 19 18 17 15 13 12 11 9 8 8 6 5 4 3 2
9 10 10 10 10 10 10 11 11 12 12 13 13 14 14 15 16 16 17 18 19 19 20 21 22 22 21 21 20 19 18 16 15 14 12 10 9 8 7 6 5 3 2
9 10 10 9 9 9 9 10 10 11 11 12 13 14 14 14 15 16 17 17 18 19 19 20 22 22 21 20 20 19 18 18 16 15 13 12 11 9 8 7 6 4 3
9 9 8 9 9 9 9 10 10 11 12 12 13 13 14 14 14 15 16 17 18 19 19 20 20 21 22 21 21 19 19 19 18 16 15 13 12 11 10 8 7 6 5
8 8 8 8 8 8 9 9 10 11 12 13 13 13 14 14 14 15 16 16 17 18 19 19 20 21 22 21 21 21 20 19 18 17 15 14 13 12 11 10 9 7 6
8 7 7 8 8 8 8 9 10 11 12 12 13 14 14 15 15 15 16 16 16 17 18 19 20 21 22 22 22 21 21 20 19 18 17 15 14 13 13 12 11 9 8
8 7 7 7 8 8 8 9 10 11 11 12 13 14 15 15 16 16 16 17 17 18 18 19 20 21 22 22 23 23 22 21 20 19 18 17 15 15 14 14 12 11 10
7 6 7 7 7 7 8 9 10 11 12 13 14 15 15 15 16 17 17 17 18 18 19 19 20 21 21 22 22 23 23 22 22 21 20 19 17 16 16 15 14 13 12
7 6 6 7 7 7 8 9 10 12 13 14 15 15 15 16 17 17 18 18 19 19 19 19 20 20 21 21 21 23 23 23 23 22 21 20 19 18 17 16 15 15 14
7 6 6 6 7 7 8 9 11 12 13 15 15 15 16 17 18 18 19 19 20 20 20 19 19 19 20 20 21 22 23 23 23 23 23 22 21 19 19 18 17 17 16
7 7 6 6 7 7 8 10 11 12 14 15 16 16 17 18 18 19 19 19 20 20 20 19 19 19 19 20 20 21 22 23 24 24 23 24 22 21 20 20 19 18 17
7 7 6 6 7 7 8 9 11 13 15 16 16 16 17 18 18 19 19 20 20 20 19 18 18 17 18 18 19 20 21 23 24 25 24 25 24 23 22 21 20 19 19
7 7 7 7 7 7 8 9 11 13 15 16 16 17 17 18 19 19 19 20 20 19 18 18 16 15 15 16 17 19 21 23 24 25 26 26 25 24 23 22 22 21 20
7 7 7 7 7 7 8 9 11 13 15 16 16 17 17 18 19 19 19 20 20 19 18 17 15 14 14 14 16 17 20 23 24 25 26 26 26 25 24 23 23 22 21
8 8 8 7 7 7 9 10 11 13 15 16 16 17 17 18 18 19 19 20 20 18 18 16 14 13 12 13 13 15 18 22 24 24 25 26 26 26 25 24 24 23 22
8 8 8 7 7 8 9 10 12 13 15 16 16 17 17 18 18 19 20 20 19 19 18 16 13 12 11 11 12 13 16 20 24 25 26 26 27 27 26 25 25 24 23
8 8 7 7 7 8 9 10 12 13 14 15 16 17 18 18 19 19 19 19 19 19 17 15 13 10 9 9 10 12 14 18 22 25 26 26 27 28 27 26 25 25 24
8 8 8 7 7 8 9 10 12 13 14 15 16 17 18 19 19 19 19 19 19 19 17 15 12 10 9 8 9 10 12 15 19 23 26 26 27 28 28 27 26 26 25
9 9 8 8 8 8 9 10 11 12 14 15 15 16 17 19 19 19 19 19 19 19 17 14 12 10 8 8 8 9 11 13 17 21 24 25 26 27 28 28 27 27 26
9 9 9 9 8 8 9 10 11 12 13 14 15 16 17 19 19 19 19 19 19 18 16 14 11 9 8 6 6 7 9 11 14 19 22 24 24 27 29 28 28 27 27
9 9 9 9 9 9 9 10 10 11 12 13 14 16 17 18 19 19 19 18 18 17 16 14 11 9 8 6 4 5 7 9 11 15 19 22 23 25 27 28 28 27 26
9 10 10 10 10 9 9 10 10 11 12 13 14 15 17 18 18 19 19 18 17 17 16 14 11 10 8 6 4 4 6 8 10 13 16 19 21 23 25 27 27 26 26
10 10 10 11 10 10 10 10 11 11 12 13 13 15 16 17 18 18 18 17 17 16 15 14 11 9 8 6 4 3 4 7 9 11 14 17 19 22 24 25 25 25 25
Wind_Direction
323 322 319 317 317 318 319 318 316 312 309 306 304 301 299 297 293 289 289 285 283 282 282 279 276 276 277 278 281 283 286 285 286 285 284 284 286 291 297 303 313 324 341
318 322 321 319 318 318 318 319 318 316 314 310 307 305 302 298 296 293 289 287 284 283 282 281 278 275 275 274 276 280 280 279 281 283 280 278 278 282 285 290 297 308 335
316 319 320 318 318 319 319 321 322 319 316 313 311 309 305 301 298 296 292 288 285 283 282 281 278 275 274 274 274 274 275 273 276 278 277 272 271 273 270 274 282 289 313
318 318 318 318 319 320 322 323 324 323 321 317 315 312 308 305 301 298 293 290 286 284 282 279 277 275 275 274 271 269 269 267 268 271 272 265 263 263 259 259 260 261 284
318 319 318 320 321 321 322 324 325 326 326 324 321 317 313 310 306 303 298 293 290 287 284 279 277 275 274 272 269 266 263 262 262 263 264 259 255 253 250 247 244 238 240
318 318 319 321 322 323 324 325 327 330 330 328 326 323 320 316 310 306 303 296 293 288 284 281 279 274 272 269 267 264 260 258 258 258 257 253 250 245 241 238 235 227 218
314 316 319 320 322 325 327 330 333 334 333 332 330 328 325 321 315 310 306 300 296 291 287 285 279 275 272 269 265 262 258 256 253 252 250 247 244 238 234 231 225 218 207
313 315 317 321 326 327 330 335 338 338 338 337 335 331 328 324 319 314 309 303 298 293 288 284 281 274 271 268 263 259 256 255 251 247 243 241 238 232 229 227 220 213 205
311 314 318 324 327 329 334 337 339 339 339 337 334 331 328 325 321 316 311 307 302 297 291 285 281 275 271 266 261 257 253 252 249 243 239 237 234 229 225 222 218 213 204
308 313 319 324 328 332 338 340 341 340 339 338 335 332 329 326 322 318 314 310 306 300 294 287 281 276 271 266 260 256 251 246 245 241 235 232 230 226 222 218 216 212 204
303 310 315 321 327 332 338 340 341 341 340 338 335 332 330 327 324 320 316 312 308 304 297 291 283 276 271 266 259 253 249 244 240 237 232 228 226 223 219 216 213 209 203
301 307 311 317 326 331 335 339 341 341 339 336 334 332 330 328 325 322 319 315 311 307 301 293 286 277 270 265 258 251 247 241 236 232 229 225 224 222 219 214 212 209 204
297 301 309 317 324 329 333 337 339 339 337 335 332 331 330 328 326 324 321 318 314 310 304 297 288 278 270 265 257 249 243 236 232 230 227 224 222 220 218 214 211 208 203
299 298 302 311 317 321 327 333 335 335 334 333 332 330 330 329 328 327 324 322 318 312 306 300 291 280 271 265 257 248 241 235 231 227 224 221 220 218 217 212 210 208 203
296 293 295 302 308 313 323 330 332 334 334 334 332 331 331 331 331 330 328 326 323 317 312 304 296 284 271 264 256 247 239 233 229 223 222 219 218 217 216 211 208 208 204
284 284 285 290 300 310 321 329 332 334 334 334 333 332 332 333 332 332 331 329 326 322 318 312 301 287 274 264 256 246 237 230 226 223 221 218 217 215 213 210 208 207 205
278 276 274 281 294 309 320 329 333 335 336 336 335 335 335 335 335 334 333 332 330 326 321 316 305 291 277 265 255 245 236 228 224 221 218 216 215 213 212 210 206 205 205
273 270 270 279 293 308 321 329 334 337 338 339 339 339 339 338 337 336 335 334 333 329 325 319 308 294 281 266 255 244 234 226 222 217 215 215 213 211 210 208 205 206 205
271 267 267 278 292 308 320 327 334 338 340 342 342 341 341 341 340 339 339 338 336 333 329 323 312 298 285 269 256 244 233 226 222 217 215 213 212 211 210 208 208 207 206
269 266 268 279 293 306 317 325 333 339 341 343 344 343 343 343 342 342 342 341 340 338 333 327 318 305 288 273 260 245 234 227 222 218 214 213 213 212 211 210 209 208 206
270 270 274 282 294 304 315 323 332 338 341 343 344 345 344 345 345 345 346 343 342 341 339 333 325 312 296 279 264 246 237 229 221 217 214 213 213 212 212 209 209 209 207
273 274 277 282 294 303 312 320 329 336 339 342 344 345 345 345 346 347 347 347 345 343 343 339 334 323 306 286 266 247 237 228 221 218 216 215 213 211 210 209 211 211 211
275 274 277 283 293 301 311 318 325 332 336 340 343 345 345 346 347 348 348 349 349 348 348 346 342 337 324 302 273 246 238 226 221 219 220 216 213 212 211 210 211 212 213
279 277 277 282 290 300 309 314 321 328 333 338 342 344 345 347 348 349 350 351 352 355 356 354 350 347 341 323 291 251 236 229 221 217 216 214 213 212 212 212 213 213 213
281 279 277 280 286 294 302 309 316 322 328 335 339 342 345 347 349 350 351 353 355 357 359 360 355 354 352 342 315 265 240 228 217 214 211 209 211 212 213 212 212 214 215
282 280 279 280 284 290 295 302 309 317 323 329 335 339 342 345 348 350 352 354 357 359 1 3 1 358 357 353 339 290 245 227 215 213 210 208 210 211 213 214 216 216 216
Height
5878 5877 5877 5876 5876 5875 5874 5873 5872 5871 5870 5869 5868 5867 5866 5866 5866 5866 5865 5865 5865 5865 5865 5866 5866 5866 5867 5868 5869 5869 5870 5870 5871 5871 5872 5872 5872 5873 5873 5873 5873 5872 5872
5877 5877 5876 5875 5874 5873 5873 5872 5870 5869 5868 5867 5866 5865 5864 5864 5863 5863 5863 5863 5863 5863 5863 5863 5863 5863 5864 5865 5866 5867 5867 5868 5868 5869 5870 5870 5871 5872 5872 5872 5872 5872 5871
5876 5876 5875 5874 5873 5872 5871 5870 5869 5868 5866 5865 5864 5863 5862 5861 5861 5860 5860 5860 5860 5860 5860 5859 5860 5860 5861 5862 5863 5864 5865 5865 5866 5867 5868 5869 5869 5870 5871 5871 5871 5871 5871
5875 5875 5874 5873 5872 5871 5870 5869 5868 5866 5865 5864 5862 5861 5860 5859 5858 5858 5857 5857 5856 5856 5856 5856 5856 5856 5857 5858 5859 5860 5861 5863 5864 5865 5866 5867 5868 5869 5870 5870 5870 5871 5871
5874 5874 5873 5872 5871 5870 5869 5868 5866 5865 5864 5862 5861 5859 5858 5857 5856 5855 5854 5853 5853 5853 5852 5852 5852 5853 5853 5854 5855 5856 5858 5859 5861 5863 5864 5865 5866 5867 5868 5869 5870 5870 5870
5873 5873 5872 5871 5870 5869 5868 5866 5865 5864 5862 5861 5859 5858 5856 5855 5853 5852 5851 5850 5850 5849 5848 5848 5848 5848 5849 5850 5851 5852 5854 5856 5858 5860 5861 5863 5864 5866 5867 5868 5869 5869 5870
5873 5872 5871 5870 5869 5868 5867 5865 5864 5862 5861 5859 5857 5856 5854 5853 5851 5850 5849 5848 5846 5845 5845 5844 5844 5844 5845 5846 5847 5849 5850 5852 5854 5856 5858 5860 5862 5864 5865 5866 5868 5868 5869
5872 5871 5870 5869 5868 5866 5865 5864 5862 5861 5859 5858 5856 5854 5853 5851 5849 5848 5846 5845 5843 5842 5841 5840 5840 5840 5840 5841 5843 5844 5846 5848 5850 5853 5855 5857 5859 5861 5863 5865 5866 5867 5868
5871 5870 5869 5868 5867 5865 5864 5863 5861 5860 5858 5856 5854 5853 5851 5849 5847 5845 5843 5842 5840 5839 5837 5837 5836 5836 5836 5837 5838 5840 5842 5844 5846 5849 5851 5854 5856 5859 5861 5863 5865 5866 5868
5869 5868 5868 5867 5865 5864 5863 5862 5860 5859 5857 5855 5853 5851 5849 5847 5845 5843 5841 5839 5837 5835 5834 5833 5832 5832 5832 5832 5833 5835 5837 5840 5843 5845 5848 5851 5853 5856 5858 5860 5863 5865 5867
5868 5867 5866 5865 5864 5863 5862 5861 5859 5857 5856 5854 5851 5849 5847 5845 5842 5840 5838 5835 5833 5831 5830 5828 5827 5827 5826 5827 5828 5830 5832 5835 5838 5841 5844 5847 5850 5852 5855 5858 5860 5863 5865
5867 5866 5865 5864 5863 5862 5861 5859 5858 5856 5854 5852 5850 5847 5845 5842 5840 5837 5834 5832 5830 5827 5825 5824 5822 5821 5821 5822 5823 5825 5827 5830 5833 5837 5840 5843 5846 5849 5852 5855 5858 5861 5863
5865 5864 5864 5863 5862 5861 5860 5858 5857 5855 5853 5850 5848 5845 5843 5840 5837 5834 5831 5828 5826 5823 5821 5819 5817 5816 5816 5817 5818 5820 5822 5825 5828 5832 5836 5839 5843 5846 5849 5852 5855 5858 5861
5863 5863 5862 5862 5861 5860 5859 5857 5855 5853 5851 5849 5846 5843 5840 5837 5834 5831 5828 5825 5822 5819 5816 5814 5812 5811 5811 5811 5813 5815 5817 5820 5823 5827 5831 5835 5839 5842 5845 5849 5852 5855 5859
5862 5862 5861 5861 5860 5859 5858 5856 5854 5852 5850 5847 5844 5841 5838 5835 5831 5828 5825 5821 5818 5815 5812 5809 5807 5806 5805 5806 5807 5810 5812 5815 5818 5822 5826 5831 5835 5838 5842 5845 5849 5853 5856
5861 5861 5860 5860 5859 5858 5856 5855 5853 5851 5848 5845 5842 5839 5836 5832 5829 5825 5822 5818 5814 5811 5808 5805 5803 5801 5801 5801 5802 5804 5807 5810 5814 5818 5822 5826 5830 5835 5838 5842 5846 5850 5853
5860 5859 5859 5858 5858 5856 5855 5853 5851 5849 5846 5843 5840 5837 5833 5830 5826 5823 5819 5815 5811 5807 5804 5801 5799 5797 5797 5797 5798 5800 5802 5805 5809 5813 5817 5822 5826 5831 5835 5839 5843 5847 5851
5858 5858 5857 5857 5856 5855 5853 5852 5850 5847 5844 5842 5838 5835 5831 5828 5824 5820 5816 5812 5808 5804 5801 5798 5796 5794 5793 5793 5794 5796 5798 5801 5804 5808 5813 5817 5822 5827 5831 5836 5840 5844 5848
5856 5856 5856 5855 5854 5853 5851 5850 5848 5845 5843 5840 5836 5833 5830 5826 5822 5818 5814 5810 5806 5802 5798 5795 5793 5791 5790 5790 5791 5792 5794 5797 5800 5804 5809 5813 5818 5823 5828 5832 5836 5841 5845
5854 5854 5854 5853 5852 5851 5850 5848 5846 5844 5841 5838 5835 5832 5828 5824 5820 5816 5812 5808 5804 5800 5796 5792 5790 5788 5788 5788 5788 5789 5790 5793 5796 5800 5804 5809 5814 5819 5824 5828 5833 5837 5841
5852 5852 5852 5851 5850 5849 5848 5846 5844 5842 5840 5837 5834 5830 5827 5823 5819 5815 5810 5806 5802 5798 5794 5791 5788 5786 5785 5785 5785 5786 5787 5790 5792 5796 5800 5805 5810 5815 5819 5824 5829 5833 5838
5850 5850 5850 5849 5848 5847 5846 5844 5842 5840 5838 5835 5832 5829 5825 5822 5818 5813 5809 5805 5801 5797 5793 5789 5787 5785 5783 5783 5783 5784 5785 5788 5789 5793 5797 5801 5806 5811 5815 5820 5825 5830 5834
5848 5848 5847 5847 5846 5845 5844 5842 5840 5838 5836 5834 5831 5828 5824 5821 5816 5812 5808 5804 5800 5796 5792 5788 5786 5783 5782 5781 5781 5782 5783 5784 5786 5790 5793 5797 5802 5807 5811 5816 5821 5826 5831
5846 5845 5845 5844 5844 5843 5841 5840 5839 5837 5835 5832 5830 5826 5823 5820 5816 5811 5807 5803 5799 5795 5791 5788 5785 5783 5781 5780 5780 5780 5781 5782 5784 5787 5791 5794 5799 5803 5808 5813 5818 5822 5827
5844 5843 5842 5842 5841 5841 5839 5838 5837 5835 5833 5831 5828 5825 5822 5819 5815 5811 5807 5803 5799 5795 5792 5788 5785 5783 5781 5780 5779 5779 5780 5781 5782 5785 5788 5792 5796 5800 5804 5809 5813 5818 5823
5841 5841 5840 5840 5839 5839 5838 5836 5835 5834 5832 5830 5827 5824 5821 5818 5814 5811 5807 5803 5799 5796 5792 5789 5786 5784 5782 5780 5779 5779 5779 5780 5781 5783 5786 5790 5793 5797 5801 5806 5810 5814 5819